This is the latest recevied weather packets stored in our database for station/object NK7I. If no packets are shown the sender has not sent any weather packets the latest 10 day(s).
| Time | Temp. | Humidity | Pressure | Rain* | Wind** | Luminosity | Snow |
|---|---|---|---|---|---|---|---|
| 1777836383 | 20.56° C | 44% | 1012 hPa | 0 mm | - | 1276 W/m² | - |
| 1777836083 | 20.56° C | 40% | 1012.1 hPa | 0 mm | - | 1281 W/m² | - |
| 1777835782 | 20° C | 37% | 1012.2 hPa | 0 mm | - | 1280 W/m² | - |
| 1777835482 | 20° C | 42% | 1012.4 hPa | 0 mm | - | 1274 W/m² | - |
| 1777835182 | 19.44° C | 38% | 1012.5 hPa | 0 mm | - | 1266 W/m² | - |
| 1777834882 | 19.44° C | 40% | 1012.5 hPa | 0 mm | - | 1271 W/m² | - |
| 1777834583 | 19.44° C | 48% | 1012.7 hPa | 0 mm | - | 1255 W/m² | - |
| 1777834282 | 19.44° C | 44% | 1012.7 hPa | 0 mm | - | 1255 W/m² | - |
| 1777833982 | 19.44° C | 44% | 1012.9 hPa | 0 mm | - | 1245 W/m² | - |
| 1777833683 | 19.44° C | 44% | 1012.9 hPa | 0 mm | - | 1252 W/m² | - |
| 1777833382 | 19.44° C | 46% | 1012.9 hPa | 0 mm | - | 1248 W/m² | - |
| 1777833082 | 19.44° C | 46% | 1013 hPa | 0 mm | - | 1245 W/m² | - |
| 1777832782 | 19.44° C | 49% | 1013 hPa | 0 mm | - | 1236 W/m² | - |
| 1777832482 | 18.89° C | 47% | 1013.3 hPa | 0 mm | - | 1225 W/m² | - |
| 1777832182 | 18.89° C | 48% | 1013.3 hPa | 0 mm | - | 1216 W/m² | - |
| 1777831882 | 18.33° C | 48% | 1013.4 hPa | 0 mm | - | 1208 W/m² | - |
| 1777831582 | 18.33° C | 52% | 1013.5 hPa | 0 mm | - | 1201 W/m² | - |
| 1777831282 | 17.78° C | 49% | 1013.5 hPa | 0 mm | - | 1190 W/m² | - |
| 1777830983 | 17.78° C | 44% | 1013.6 hPa | 0 mm | - | 1181 W/m² | - |
| 1777830682 | 17.78° C | 49% | 1013.6 hPa | 0 mm | - | 1174 W/m² | - |
| 1777830382 | 17.22° C | 55% | 1013.7 hPa | 0 mm | - | 1157 W/m² | - |
| 1777830082 | 17.22° C | 52% | 1013.8 hPa | 0 mm | - | 1148 W/m² | - |
| 1777829782 | 17.22° C | 51% | 1013.9 hPa | 0 mm | - | 1134 W/m² | - |
| 1777829482 | 16.67° C | 52% | 1013.9 hPa | 0 mm | - | 1120 W/m² | - |
| 1777829182 | 16.67° C | 52% | 1014 hPa | 0 mm | - | 1109 W/m² | - |
* Rain latest hour (hover to see other rain measurements)
** Current wind speed in m/s (hover to see current wind gust speed)